When you browse on this site, cookies collect data to enhance your experience and personalize the content and advertising you see.
Visit our Privacy Policy to learn more. By continuing to use the site, you agree to this use of cookies and data.
  • In Hungary
  • List of Countries
  • For 7 days
  • Water Temperature
  • Satellite Maps
  • Weather Map
  • News
  • Weather Widgets
  • user-avatar
    Login

    Hourly Weather Siniec

    Today, 18 January, Friday

    Time Temperature Precipitation Wind Pressure Humidity
    00:00 -2°C° 0 mm 5 mps 735 mmHg 89%
    01:00 -2°C° 0 mm 5 mps 735 mmHg 90%
    02:00 -2°C° 0.3 mm 4 mps 735 mmHg 92%
    03:00 -2°C° 0.3 mm 4 mps 735 mmHg 93%
    04:00 0°C° 0.3 mm 3 mps 735 mmHg 95%
    05:00 -2°C° 1.8 mm 5 mps 735 mmHg 95%
    06:00 -3°C° 1.8 mm 6 mps 735 mmHg 95%
    07:00 -3°C° 1.8 mm 7 mps 735 mmHg 95%
    08:00 -4°C° 0.6 mm 6 mps 737 mmHg 92%
    09:00 -5°C° 0.6 mm 5 mps 738 mmHg 90%
    10:00 -4°C° 0.6 mm 4 mps 739 mmHg 88%
    11:00 -5°C° 0.1 mm 5 mps 740 mmHg 86%
    12:00 -4°C° 0.1 mm 5 mps 741 mmHg 83%
    13:00 -4°C° 0.1 mm 5 mps 742 mmHg 81%
    14:00 -4°C° 0.1 mm 5 mps 743 mmHg 83%
    15:00 -4°C° 0.1 mm 4 mps 744 mmHg 84%
    16:00 -5°C° 0.1 mm 4 mps 744 mmHg 86%
    17:00 -5°C° 0.1 mm 4 mps 745 mmHg 86%
    18:00 -5°C° 0.1 mm 4 mps 745 mmHg 86%
    19:00 -5°C° 0.1 mm 4 mps 746 mmHg 86%
    20:00 -7°C° 0 mm 4 mps 746 mmHg 86%
    21:00 -7°C° 0 mm 4 mps 747 mmHg 86%
    22:00 -7°C° 0 mm 4 mps 747 mmHg 85%
    23:00 -7°C° 0 mm 4 mps 747 mmHg 84%

    Tomorrow, 19 January, Saturday

    Time Temperature Precipitation Wind Pressure Humidity
    00:00 -7°C° 0 mm 4 mps 748 mmHg 84%
    01:00 -7°C° 0 mm 5 mps 748 mmHg 83%
    02:00 -7°C° 0 mm 5 mps 748 mmHg 85%
    03:00 -7°C° 0 mm 5 mps 748 mmHg 88%
    04:00 -7°C° 0 mm 5 mps 749 mmHg 90%
    05:00 -7°C° 0 mm 4 mps 749 mmHg 91%
    06:00 -7°C° 0 mm 4 mps 749 mmHg 92%
    07:00 -7°C° 0 mm 4 mps 749 mmHg 93%
    08:00 -7°C° 0 mm 4 mps 750 mmHg 92%
    09:00 -5°C° 0 mm 4 mps 750 mmHg 90%
    10:00 -5°C° 0 mm 4 mps 750 mmHg 89%
    11:00 -4°C° 0 mm 4 mps 750 mmHg 88%
    12:00 -4°C° 0 mm 4 mps 750 mmHg 87%
    13:00 -3°C° 0 mm 4 mps 750 mmHg 86%
    14:00 -4°C° 0 mm 4 mps 750 mmHg 87%
    15:00 -4°C° 0 mm 4 mps 750 mmHg 89%
    16:00 -5°C° 0 mm 4 mps 750 mmHg 90%
    17:00 -5°C° 0 mm 4 mps 750 mmHg 90%
    18:00 -5°C° 0 mm 4 mps 750 mmHg 90%
    19:00 -5°C° 0 mm 4 mps 750 mmHg 90%
    20:00 -7°C° 0 mm 4 mps 750 mmHg 90%
    21:00 -7°C° 0 mm 4 mps 750 mmHg 91%
    22:00 -7°C° 0 mm 4 mps 751 mmHg 91%
    23:00 -6°C° 0 mm 3 mps 751 mmHg 91%

    Day after tomorrow, 20 January, Sunday

    Time Temperature Precipitation Wind Pressure Humidity
    00:00 -7°C° 0 mm 3 mps 751 mmHg 92%
    01:00 -7°C° 0 mm 3 mps 751 mmHg 92%
    02:00 -7°C° 0 mm 3 mps 750 mmHg 93%
    03:00 -7°C° 0 mm 3 mps 750 mmHg 93%
    04:00 -7°C° 0 mm 3 mps 750 mmHg 93%
    05:00 -7°C° 0 mm 3 mps 750 mmHg 93%
    06:00 -8°C° 0 mm 3 mps 750 mmHg 93%
    07:00 -8°C° 0 mm 3 mps 749 mmHg 92%
    08:00 -7°C° 0 mm 3 mps 749 mmHg 92%
    09:00 -6°C° 0 mm 3 mps 749 mmHg 91%
    10:00 -6°C° 0 mm 3 mps 749 mmHg 90%
    11:00 -5°C° 0 mm 3 mps 749 mmHg 90%
    12:00 -5°C° 0 mm 3 mps 749 mmHg 89%
    13:00 -4°C° 0 mm 4 mps 749 mmHg 88%
    14:00 -5°C° 0 mm 4 mps 749 mmHg 89%
    15:00 -5°C° 0 mm 4 mps 749 mmHg 90%
    16:00 -7°C° 0 mm 4 mps 749 mmHg 91%
    17:00 -5°C° 0.1 mm 4 mps 749 mmHg 92%
    18:00 -5°C° 0.1 mm 4 mps 749 mmHg 93%
    19:00 -4°C° 0.1 mm 4 mps 749 mmHg 94%
    20:00 -5°C° 0.1 mm 3 mps 749 mmHg 93%
    21:00 -4°C° 0.1 mm 2 mps 750 mmHg 92%
    22:00 -2°C° 0.1 mm 1 mps 750 mmHg 90%
    23:00 -3°C° 0 mm 1 mps 750 mmHg 89%

    21 January, Monday

    Time Temperature Precipitation Wind Pressure Humidity
    00:00 -6°C° 0 mm 2 mps 751 mmHg 88%
    01:00 -7°C° 0 mm 2 mps 751 mmHg 87%
    02:00 -7°C° 0 mm 2 mps 751 mmHg 87%
    03:00 -7°C° 0 mm 2 mps 751 mmHg 88%
    04:00 -7°C° 0 mm 2 mps 752 mmHg 88%
    05:00 -6°C° 0 mm 1 mps 752 mmHg 87%
    06:00 -7°C° 0 mm 1 mps 752 mmHg 86%
    07:00 -7°C° 0 mm 1 mps 753 mmHg 85%
    08:00 -7°C° 0 mm 2 mps 753 mmHg 85%
    09:00 -6°C° 0 mm 2 mps 753 mmHg 85%
    10:00 -6°C° 0 mm 2 mps 754 mmHg 85%
    11:00 -5°C° 0 mm 2 mps 754 mmHg 84%
    12:00 -4°C° 0 mm 2 mps 754 mmHg 84%
    13:00 -4°C° 0 mm 2 mps 754 mmHg 84%
    14:00 -4°C° 0 mm 2 mps 754 mmHg 84%
    15:00 -5°C° 0 mm 2 mps 753 mmHg 84%
    16:00 -6°C° 0 mm 2 mps 753 mmHg 84%
    17:00 -7°C° 0 mm 2 mps 753 mmHg 85%
    18:00 -7°C° 0 mm 2 mps 753 mmHg 86%
    19:00 -8°C° 0 mm 3 mps 753 mmHg 87%
    20:00 -7°C° 0 mm 3 mps 753 mmHg 89%
    21:00 -7°C° 0 mm 3 mps 753 mmHg 91%
    22:00 -6°C° 0 mm 3 mps 753 mmHg 93%
    23:00 -6°C° 0 mm 3 mps 753 mmHg 93%

    22 January, Tuesday

    Time Temperature Precipitation Wind Pressure Humidity
    00:00 -6°C° 0 mm 3 mps 753 mmHg 94%
    01:00 -7°C° 0 mm 3 mps 752 mmHg 95%
    02:00 -7°C° 0.1 mm 3 mps 752 mmHg 95%
    03:00 -5°C° 0.1 mm 2 mps 752 mmHg 95%
    04:00 -5°C° 0.1 mm 2 mps 751 mmHg 95%
    05:00 -5°C° 0 mm 2 mps 751 mmHg 95%
    06:00 -5°C° 0 mm 2 mps 751 mmHg 95%
    07:00 -6°C° 0 mm 2 mps 751 mmHg 95%
    08:00 -5°C° 0 mm 2 mps 751 mmHg 95%
    09:00 -5°C° 0 mm 3 mps 751 mmHg 94%
    10:00 -5°C° 0 mm 3 mps 751 mmHg 94%
    11:00 -4°C° 0 mm 3 mps 750 mmHg 93%
    12:00 -4°C° 0 mm 3 mps 750 mmHg 92%
    13:00 -2°C° 0 mm 3 mps 750 mmHg 91%
    14:00 -4°C° 0 mm 3 mps 750 mmHg 90%
    15:00 -4°C° 0 mm 3 mps 749 mmHg 90%
    16:00 -4°C° 0 mm 3 mps 749 mmHg 89%
    17:00 -5°C° 0 mm 3 mps 749 mmHg 90%
    18:00 -5°C° 0 mm 3 mps 749 mmHg 91%
    19:00 -6°C° 0 mm 3 mps 749 mmHg 92%
    20:00 -7°C° 0 mm 3 mps 749 mmHg 92%
    21:00 -8°C° 0 mm 3 mps 749 mmHg 92%
    22:00 -9°C° 0 mm 3 mps 749 mmHg 92%
    23:00 -9°C° 0 mm 3 mps 749 mmHg 91%

    23 January, Wednesday

    Time Temperature Precipitation Wind Pressure Humidity
    00:00 -9°C° 0 mm 3 mps 749 mmHg 91%
    01:00 -10°C° 0 mm 3 mps 749 mmHg 90%
    02:00 -10°C° 0 mm 3 mps 748 mmHg 90%
    03:00 -10°C° 0 mm 3 mps 748 mmHg 90%
    04:00 -12°C° 0 mm 3 mps 748 mmHg 90%
    05:00 -12°C° 0 mm 3 mps 748 mmHg 89%
    06:00 -12°C° 0 mm 4 mps 748 mmHg 89%
    07:00 -12°C° 0 mm 4 mps 748 mmHg 89%
    08:00 -12°C° 0 mm 4 mps 748 mmHg 88%
    09:00 -11°C° 0 mm 4 mps 748 mmHg 88%
    10:00 -11°C° 0 mm 4 mps 748 mmHg 87%
    11:00 -10°C° 0 mm 4 mps 748 mmHg 87%
    12:00 -9°C° 0 mm 4 mps 748 mmHg 88%
    13:00 -9°C° 0 mm 4 mps 748 mmHg 88%
    14:00 -9°C° 0 mm 3 mps 748 mmHg 90%
    15:00 -10°C° 0 mm 3 mps 748 mmHg 92%
    16:00 -10°C° 0 mm 3 mps 748 mmHg 93%
    17:00 -12°C° 0 mm 3 mps 748 mmHg 93%
    18:00 -12°C° 0 mm 3 mps 748 mmHg 94%
    19:00 -12°C° 0 mm 3 mps 748 mmHg 94%
    20:00 -12°C° 0 mm 3 mps 748 mmHg 94%
    21:00 -12°C° 0 mm 3 mps 748 mmHg 94%
    22:00 -12°C° 0 mm 3 mps 748 mmHg 94%
    23:00 -12°C° 0 mm 3 mps 748 mmHg 94%
    Show more